# From MPC 24219 1 Ceres,e,10.5835,80.4863,73.9844,2.766412,0.2142046,0.079116,189.2752,05/06.0/2002,2000,H 3.34,0.12 # From MPC 24084 2 Pallas,e,34.8425,173.1716,310.3944,2.773483,0.2133860,0.229937,175.4143,05/06.0/2002,2000,H 4.13,0.11 # From MPC 24084 3 Juno,e,12.9711,170.1326,247.9936,2.667458,0.2262339,0.258898,73.8333,05/06.0/2002,2000,H 5.33,0.32 # From MPC 24219 5 Astraea,e,5.3695,141.6928,357.7118,2.572864,0.2388245,0.193003,243.8043,05/06.0/2002,2000,H 6.85,0.15 # From MPC 24219 6 Hebe,e,14.7667,138.8476,238.9243,2.425562,0.2609069,0.201452,269.4231,05/06.0/2002,2000,H 5.71,0.24 # From MPC 24084 7 Iris,e,5.5240,259.8647,145.2015,2.386307,0.2673712,0.229900,282.0402,05/06.0/2002,2000,H 5.51,0.15 # From MPO 25662 8 Flora,e,5.8873,111.0356,285.0692,2.201020,0.3018340,0.156721,124.1309,05/06.0/2002,2000,H 6.49,0.28 # From MPO 25662 9 Metis,e,5.5769,68.9931,5.6506,2.386533,0.2673332,0.122288,60.0990,05/06.0/2002,2000,H 6.28,0.17 # From MPC 35055 10 Hygiea,e,3.8439,283.6576,313.9582,3.135867,0.1774874,0.119356,131.3423,05/06.0/2002,2000,H 5.43,0.15 # From MPO 2601 13 Egeria,e,16.5379,43.3216,81.0569,2.576741,0.2382856,0.084598,149.4643,05/06.0/2002,2000,H 6.74,0.15 # From MPO 595 14 Irene,e,9.1066,86.5047,96.4830,2.585564,0.2370670,0.167843,136.7367,05/06.0/2002,2000,H 6.30,0.15 # From MPO 25662 15 Eunomia,e,11.7479,293.4919,97.1031,2.644616,0.2291712,0.185590,303.0621,05/06.0/2002,2000,H 5.28,0.23 # From MPC 35055 16 Psyche,e,3.0953,150.3563,228.3417,2.919211,0.1976086,0.139655,145.2415,05/06.0/2002,2000,H 5.90,0.20 # From MPC 24085 18 Melpomene,e,10.1271,150.5609,227.7079,2.295967,0.2833059,0.217471,310.6422,05/06.0/2002,2000,H 6.51,0.25 # From MPO 25662 20 Massalia,e,0.7060,206.5994,255.7788,2.408702,0.2636510,0.142811,284.1280,05/06.0/2002,2000,H 6.50,0.25 # From MPC 25716 25 Phocaea,e,21.5761,214.3048,90.2264,2.399613,0.2651504,0.256669,329.1506,05/06.0/2002,2000,H 7.83,0.15 # From MPO 4876 27 Euterpe,e,1.5837,94.8143,356.4820,2.346480,0.2742072,0.171998,75.6085,05/06.0/2002,2000,H 7.0,0.15 # From MPC 24219 28 Bellona,e,9.4019,144.5174,342.2979,2.777543,0.2129183,0.149167,35.0273,05/06.0/2002,2000,H 7.09,0.15 # From MPC 23111 29 Amphitrite,e,6.1012,356.5486,62.3112,2.555135,0.2413145,0.071607,228.8158,05/06.0/2002,2000,H 5.85,0.20 # From MPC 24085 30 Urania,e,2.0985,307.9324,86.2688,2.365002,0.2709921,0.127427,150.4412,05/06.0/2002,2000,H 7.57,0.15 # From MPC 27086 32 Pomona,e,5.5297,220.5981,339.5099,2.586686,0.2369127,0.081886,3.6458,05/06.0/2002,2000,H 7.56,0.15 # From MPO 9657 42 Isis,e,8.5385,84.5684,235.9151,2.440729,0.2584787,0.223653,43.4830,05/06.0/2002,2000,H 7.53,0.15 # From MPC 25032 43 Ariadne,e,3.4700,265.0258,15.7076,2.202810,0.3014662,0.168693,70.0031,05/06.0/2002,2000,H 7.93,0.11 # From MPO 3854 44 Nysa,e,3.7030,131.6135,342.7416,2.423216,0.2612859,0.148564,263.7442,05/06.0/2002,2000,H 7.03,0.46 # From MPC 25186 46 Hestia,e,2.3363,181.2229,176.0064,2.525275,0.2456071,0.171640,348.9374,05/06.0/2002,2000,H 8.36,0.06 # From MPC 31001 51 Nemausa,e,9.9683,176.2015,3.0696,2.365080,0.2709788,0.067200,215.9274,05/06.0/2002,2000,H 7.35,0.08 # From MPC 24371 52 Europa,e,7.4687,129.0224,342.7397,3.100155,0.1805631,0.101344,196.6811,05/06.0/2002,2000,H 6.31,0.18 # From MPC 35405 63 Ausonia,e,5.7883,337.9603,296.0303,2.395129,0.2658953,0.125952,291.0442,05/06.0/2002,2000,H 7.55,0.25 # From MPC 24085 65 Cybele,e,3.5468,155.8210,105.9319,3.437326,0.1546582,0.103853,16.3960,05/06.0/2002,2000,H 6.62,0.01 # From MPC 24548 68 Leto,e,7.9557,44.4384,303.8104,2.782021,0.2124044,0.185217,25.4276,05/06.0/2002,2000,H 6.78,0.05 # From MPO 2601 71 Niobe,e,23.2560,316.1319,267.4167,2.755051,0.2155309,0.175367,7.4780,05/06.0/2002,2000,H 7.30,0.40 # From MPC 24219 72 Feronia,e,5.4130,208.2058,102.1521,2.266036,0.2889374,0.121183,16.2679,05/06.0/2002,2000,H 8.94,0.15 # From MPC 22665 79 Eurynome,e,4.6216,206.8277,200.5862,2.444872,0.2578219,0.192555,70.7911,05/06.0/2002,2000,H 7.96,0.25 # From MPC 23226 109 Felicitas,e,7.8825,3.2338,56.7405,2.697758,0.2224332,0.295457,312.7676,05/06.0/2002,2000,H 8.75,0.04 # From MPO 4876 111 Ate,e,4.9247,305.9111,165.6558,2.594026,0.2359079,0.101724,44.6954,05/06.0/2002,2000,H 8.02,0.15 # From MPO 12096 139 Juewa,e,10.9035,2.0395,165.9459,2.783180,0.2122717,0.172131,35.5609,05/06.0/2002,2000,H 7.78,0.15 # From MPC 31001 192 Nausikaa,e,6.8257,343.4672,29.8481,2.401710,0.2648031,0.247576,158.3202,05/06.0/2002,2000,H 7.13,0.03 # From MPO 2601 196 Philomela,e,7.2533,72.6534,205.7022,3.113498,0.1794036,0.024659,53.6189,05/06.0/2002,2000,H 6.54,0.15 # From MPC 25716 201 Penelope,e,5.7622,157.1809,180.4574,2.678092,0.2248878,0.181540,350.6716,05/06.0/2002,2000,H 8.43,0.24 # From MPC 31001 230 Athamantis,e,9.4355,239.9912,139.3314,2.381836,0.2681243,0.061998,162.1398,05/06.0/2002,2000,H 7.35,0.27 # From MPC 31001 349 Dembowska,e,8.2445,32.6320,345.3475,2.924736,0.1970489,0.085572,3.1695,05/06.0/2002,2000,H 5.93,0.37 # From MPC 31001 354 Eleonora,e,18.3834,140.5185,6.6356,2.799873,0.2103762,0.112452,107.9583,05/06.0/2002,2000,H 6.44,0.37 # From MPC 22573 444 Gyptis,e,10.2675,195.9076,154.0948,2.770802,0.2136958,0.175002,341.8397,05/06.0/2002,2000,H 7.83,0.22 # From MPC 31001 471 Papagena,e,14.9873,84.1195,314.8152,2.886731,0.2009530,0.233374,80.8003,05/06.0/2002,2000,H 6.73,0.37 # From MPC 31002 532 Herculina,e,16.3087,107.6556,76.8717,2.772193,0.2135349,0.177651,99.4554,05/06.0/2002,2000,H 5.81,0.26 # From MPC 24086 654 Zelinda,e,18.1215,278.6121,213.9144,2.296510,0.2832055,0.231862,19.4793,05/06.0/2002,2000,H 8.52,0.15 # From MPO 12096 675 Ludmilla,e,9.8044,263.4530,152.2739,2.768194,0.2139978,0.204701,66.9143,05/06.0/2002,2000,H 7.91,0.15